Regional Weather Roundup
Issued by NWS Newport/Morehead, NC

Current Version | Previous Version | Graphics & Text | Print | Product List | Glossary Off
Versions: 1 2 3 4 5 6 7 8 9 10 11 12 13 14 15 16 17 18 19 20 21 22 23 24 25 26 27 28 29 30 31 32 33 34 35 36 37 38 39 40 41 42 43 44 45 46 47 48 49 50

000
ASUS42 KMHX 270013
RWRMHX
WEATHER ROUNDUP FOR EASTERN NORTH CAROLINA
NATIONAL WEATHER SERVICE NEWPORT/MOREHEAD CITY NC
800 PM EDT MON SEP 26 2016

NOTE: "FAIR" INDICATES FEW OR NO CLOUDS BELOW 12,000 FEET
WITH NO SIGNIFICANT WEATHER AND/OR OBSTRUCTIONS TO VISIBILITY

NCZ015>017-031-032-045>047-102-103-270100-
NORTH COAST

CITY           SKY/WX    TMP DP  RH WIND       PRES   REMARKS
EDENTON        CLOUDY    76  66  71 SW6       30.06
ELIZABETH CITY CLOUDY    73  64  73 S7        30.06R
KITTY HAWK     PTCLDY    73  67  81 CALM      30.05R
MANTEO         MOCLDY    73  65  76 S6        30.06S

$$

NCZ045>047-081-094-103-104-270100-
CENTRAL COAST

CITY           SKY/WX    TMP DP  RH WIND       PRES   REMARKS
FRISCO         CLEAR     78  64  61 S8        30.07R

$$

NCZ095-097-098-100-101-270100-
SOUTHERN COAST

CITY           SKY/WX    TMP DP  RH WIND       PRES   REMARKS
BEAUFORT       PTCLDY    74  69  85 CALM      30.06R
CEDAR ISLAND   NOT AVBL
JACKSONVILLE   CLOUDY    75  66  73 SE5       30.05R
PINEY ISLAND   CLEAR    N/A N/A N/A E3        30.06R
WILMINGTON     PTCLDY    75  67  76 E3        30.04S


$$

NCZ011>013-027>030-043-044-078>080-089-090>093-098-270100-
COASTAL PLAIN

CITY           SKY/WX    TMP DP  RH WIND       PRES   REMARKS
AHOSKIE        CLEAR     68  65  89 CALM      30.06R
CLINTON        MOCLDY    76  69  79 CALM      30.05R
ELIZABETHTOWN  CLEAR     75  69  80 SE3       30.04S
GOLDSBORO      CLEAR     74  69  86 E6        30.03R
GREENVILLE     MOCLDY    73  66  78 SE6       30.07S
HAVELOCK       CLEAR     72  68  87 E3        30.07R
KENANSVILLE    MOCLDY    73  70  88 CALM      30.06R FOG
KINSTON        MOCLDY    75  66  73 SE5       30.06S
NEW BERN       CLOUDY    74  66  76 CALM      30.07R
RICHLANDS      PTCLDY    74  68  81 CALM      30.06R
ROCKY MOUNT    MOCLDY    71  66  84 SE3       30.05R
WASHINGTON     CLOUDY    72  66  82 CALM      30.06S
WHITEVILLE     NOT AVBL

$$

AMZ130-135-150-152-154-156-158-170-250-252-270-ANZ085-086-088-633-658-670-270100-
MARINE OBSERVATIONS

STATION/POSITION TIME  TEMP    WIND        PRES    WAVE   SWELL
                       AIR SEA DIR/SP/G            HT/PER HT/PER
                 (UTC) (F)     (DEG/KT/KT) (MB)    (FT/S) (FT/S)
CHESAPEAKE LIGHT NOT AVBL
64 E VA BEACH    2350   76 76  160/ 16/ 19 1017.7    4/ 5   2/ 9
DUCK             2342   75 77  180/  8/ 10 1017.4
2 E DUCK         2341      77                N/A     3/ 9
OREGON INLET     2342   75 77  150/  5/  7 1018.0
13E OREGON INLT  2330      77                N/A     3/ 8   3/ 8
HATTERAS CG      2342   78 77  160/  7/ 12 1017.9
DIAMOND BUOY     2350   79 80  150/ 16/ 17 1017.8    3/ 8   2/ 8
CAPE LOOKOUT     0000   78     130/  9/ 10 1017.6
BEAUFORT LAB     2342   77 77   80/  2/  4 1017.1
30 SE NEW RVR IN 2308   80 83  120/  8/ 14 1017.2
30 SE NEW RVR IN 2325      83                N/A     3/ 8
27 SE WRIGHTSVLE 2308   80 81  110/ 10/ 16 1017.1
5 SE WRIGHTSVLE  2308   79 81  100/ 10/ 14 1018.0
225 S CAPE HAT   2350   76 83  110/ 14/ 16 1016.0    5/ 9   3/ 9
41 SE CHARLESTON 2350   78 82   80/ 10/ 12 1015.5    3/ 8   3/ 8

$$




USA.gov is the U.S. government's official web portal to all federal, state and local government web resources and services.